TimeEST,TemperatureF,Dew PointF,Humidity,Sea Level PressureIn,VisibilityMPH,Wind Direction,Wind SpeedMPH,Gust SpeedMPH,PrecipitationIn,Events,Conditions,WindDirDegrees,DateUTC
12:58 AM,67.8,67.8,100,30.10,10.0,SSW,5.8,-,N/A,,Scattered Clouds,210,2013-12-23 05:58:00
1:06 AM,68.0,68.0,100,30.09,10.0,SSW,6.9,-,N/A,,Mostly Cloudy,200,2013-12-23 06:06:00
1:12 AM,68.0,68.0,100,30.09,10.0,SSW,6.9,-,N/A,,Mostly Cloudy,210,2013-12-23 06:12:00
1:58 AM,68.5,68.5,100,30.09,10.0,SSW,4.6,-,N/A,,Overcast,210,2013-12-23 06:58:00
2:58 AM,69.4,69.3,99,30.08,10.0,South,8.1,-,N/A,,Overcast,190,2013-12-23 07:58:00
3:26 AM,69.8,69.8,100,30.06,10.0,SSW,6.9,-,N/A,,Scattered Clouds,200,2013-12-23 08:26:00
3:30 AM,69.8,69.8,100,30.06,10.0,South,5.8,-,N/A,,Mostly Cloudy,190,2013-12-23 08:30:00
3:48 AM,69.8,69.8,100,30.06,10.0,SW,9.2,-,N/A,,Mostly Cloudy,220,2013-12-23 08:48:00
3:58 AM,70.9,70.5,99,30.06,10.0,SW,6.9,18.4,N/A,,Overcast,220,2013-12-23 08:58:00
4:00 AM,71.6,69.8,94,30.06,10.0,SW,8.1,18.4,N/A,,Overcast,220,2013-12-23 09:00:00
4:06 AM,71.6,69.8,94,30.06,10.0,Variable,6.9,-,N/A,,Overcast,0,2013-12-23 09:06:00
4:58 AM,71.4,71.1,99,30.04,10.0,SSW,8.1,-,N/A,,Mostly Cloudy,210,2013-12-23 09:58:00
5:18 AM,71.6,71.6,100,30.04,10.0,SSW,9.2,-,N/A,,Mostly Cloudy,200,2013-12-23 10:18:00
5:34 AM,71.6,71.6,100,30.03,10.0,SSW,9.2,-,N/A,,Mostly Cloudy,200,2013-12-23 10:34:00
5:40 AM,71.6,71.6,100,30.04,10.0,South,8.1,-,N/A,,Mostly Cloudy,190,2013-12-23 10:40:00
5:58 AM,72.1,72.0,99,30.05,10.0,SSW,11.5,-,N/A,,Mostly Cloudy,200,2013-12-23 10:58:00
6:16 AM,71.6,71.6,100,30.04,10.0,SSW,10.4,18.4,N/A,Rain,Light Rain,200,2013-12-23 11:16:00
6:27 AM,71.6,71.6,100,30.04,10.0,Variable,6.9,-,N/A,,Mostly Cloudy,0,2013-12-23 11:27:00
6:58 AM,72.1,71.8,99,30.07,10.0,SSW,9.2,19.6,0.00,,Mostly Cloudy,210,2013-12-23 11:58:00
7:14 AM,71.6,71.6,100,30.06,10.0,SSW,11.5,18.4,N/A,,Scattered Clouds,210,2013-12-23 12:14:00
7:54 AM,71.6,71.6,100,30.06,10.0,SSW,10.4,18.4,N/A,,Mostly Cloudy,210,2013-12-23 12:54:00
7:58 AM,72.1,71.8,99,30.07,10.0,SSW,8.1,18.4,N/A,,Mostly Cloudy,200,2013-12-23 12:58:00
8:58 AM,72.7,72.3,99,30.08,10.0,SSW,11.5,19.6,N/A,,Mostly Cloudy,200,2013-12-23 13:58:00
9:11 AM,73.4,73.4,100,30.08,10.0,SSW,11.5,-,N/A,Rain,Light Rain,210,2013-12-23 14:11:00
9:20 AM,73.4,71.6,94,30.08,10.0,SSW,9.2,23.0,N/A,,Mostly Cloudy,210,2013-12-23 14:20:00
9:34 AM,73.4,71.6,94,30.08,10.0,SSW,11.5,19.6,N/A,,Scattered Clouds,210,2013-12-23 14:34:00
9:38 AM,73.4,71.6,94,30.08,10.0,SSW,9.2,19.6,N/A,Rain,Light Rain,210,2013-12-23 14:38:00
9:47 AM,73.4,71.6,94,30.08,10.0,SW,12.7,-,N/A,,Scattered Clouds,220,2013-12-23 14:47:00
9:58 AM,73.4,72.5,97,30.09,10.0,SW,10.4,-,0.00,,Partly Cloudy,230,2013-12-23 14:58:00
10:28 AM,75.2,71.6,89,30.07,10.0,SW,10.4,18.4,N/A,,Mostly Cloudy,230,2013-12-23 15:28:00
10:30 AM,75.2,71.6,89,30.07,10.0,SSW,10.4,18.4,N/A,,Scattered Clouds,200,2013-12-23 15:30:00
10:32 AM,75.2,69.8,83,30.07,10.0,SSW,13.8,21.9,N/A,,Mostly Cloudy,210,2013-12-23 15:32:00
10:35 AM,75.2,69.8,83,30.08,10.0,WSW,19.6,27.6,N/A,,Scattered Clouds,250,2013-12-23 15:35:00
10:37 AM,75.2,69.8,83,30.09,10.0,West,25.3,31.1,N/A,,Mostly Cloudy,270,2013-12-23 15:37:00
10:39 AM,73.4,68.0,83,30.09,1.8,West,18.4,31.1,N/A,Rain,Light Rain,260,2013-12-23 15:39:00
10:41 AM,71.6,68.0,88,30.09,1.2,WSW,12.7,31.1,N/A,Rain,Light Rain,250,2013-12-23 15:41:00
10:43 AM,69.8,68.0,94,30.09,1.0,West,10.4,31.1,N/A,Rain,Heavy Rain,260,2013-12-23 15:43:00
10:47 AM,68.0,68.0,100,30.09,1.0,WSW,9.2,31.1,N/A,Rain,Light Rain,250,2013-12-23 15:47:00
10:49 AM,68.0,68.0,100,30.09,1.5,WSW,10.4,-,N/A,Rain,Light Rain,250,2013-12-23 15:49:00
10:51 AM,68.0,68.0,100,30.08,2.5,West,10.4,-,N/A,Rain,Light Rain,260,2013-12-23 15:51:00
10:53 AM,68.0,68.0,100,30.08,4.0,WSW,10.4,-,N/A,Rain,Light Rain,250,2013-12-23 15:53:00
10:57 AM,68.0,68.0,100,30.09,9.0,SW,9.2,-,N/A,Rain,Light Rain,230,2013-12-23 15:57:00
10:58 AM,67.8,67.6,99,30.10,9.0,SW,8.1,-,0.12,Rain,Light Rain,230,2013-12-23 15:58:00
11:04 AM,68.0,68.0,100,30.09,10.0,SSW,5.8,-,N/A,,Scattered Clouds,210,2013-12-23 16:04:00
11:58 AM,68.7,68.5,99,30.07,10.0,SW,5.8,-,0.00,,Mostly Cloudy,230,2013-12-23 16:58:00
12:48 PM,69.8,69.8,100,30.04,10.0,WSW,9.2,-,N/A,Rain,Light Rain,240,2013-12-23 17:48:00
12:56 PM,69.8,69.8,100,30.03,10.0,WSW,11.5,-,N/A,Rain,Light Rain,240,2013-12-23 17:56:00
12:58 PM,69.6,69.4,99,30.04,10.0,SW,11.5,-,0.00,Rain,Light Rain,230,2013-12-23 17:58:00
1:30 PM,68.0,68.0,100,30.02,8.0,SW,5.8,-,N/A,Rain,Light Rain,230,2013-12-23 18:30:00
1:40 PM,68.0,68.0,100,30.03,8.0,WSW,6.9,-,N/A,Rain,Light Rain,240,2013-12-23 18:40:00
1:42 PM,68.0,68.0,100,30.02,4.0,SW,4.6,-,N/A,Rain,Light Rain,230,2013-12-23 18:42:00
1:44 PM,68.0,68.0,100,30.02,2.5,Variable,5.8,-,N/A,Rain,Light Rain,0,2013-12-23 18:44:00
1:48 PM,68.0,68.0,100,30.02,2.0,SSW,4.6,-,N/A,Rain,Rain,210,2013-12-23 18:48:00
1:50 PM,68.0,68.0,100,30.02,2.5,SW,3.5,-,N/A,Rain,Light Rain,220,2013-12-23 18:50:00
1:52 PM,66.2,66.2,100,30.02,3.0,Variable,3.5,-,N/A,Rain,Light Rain,0,2013-12-23 18:52:00
1:54 PM,66.2,66.2,100,30.02,5.0,Variable,5.8,-,N/A,Rain,Light Rain,0,2013-12-23 18:54:00
1:58 PM,66.9,66.9,100,30.02,9.0,SSW,4.6,-,0.10,Rain,Light Rain,210,2013-12-23 18:58:00
2:58 PM,66.9,66.9,100,30.01,10.0,South,5.8,-,0.02,Rain,Light Rain,190,2013-12-23 19:58:00
3:09 PM,66.2,66.2,100,30.00,10.0,SSW,4.6,-,N/A,Rain,Light Rain,210,2013-12-23 20:09:00
3:45 PM,66.2,66.2,100,30.02,6.0,SW,5.8,-,N/A,Rain,Light Rain,230,2013-12-23 20:45:00
3:47 PM,66.2,66.2,100,30.01,6.0,WSW,5.8,-,N/A,Rain,Light Rain,250,2013-12-23 20:47:00
3:58 PM,67.1,67.1,100,30.03,7.0,WSW,4.6,-,0.04,Rain,Light Rain,250,2013-12-23 20:58:00
4:00 PM,68.0,68.0,100,30.02,7.0,WSW,5.8,-,N/A,Rain,Light Rain,250,2013-12-23 21:00:00
4:16 PM,66.2,66.2,100,30.02,3.0,WSW,8.1,-,N/A,Rain,Light Rain,240,2013-12-23 21:16:00
4:17 PM,66.2,66.2,100,30.02,2.5,WSW,8.1,-,N/A,Rain,Light Rain,240,2013-12-23 21:17:00
4:19 PM,66.2,66.2,100,30.02,2.0,WSW,6.9,-,N/A,Rain,Heavy Rain,240,2013-12-23 21:19:00
4:21 PM,66.2,66.2,100,30.02,1.5,WSW,8.1,-,N/A,Rain,Heavy Rain,250,2013-12-23 21:21:00
4:23 PM,66.2,66.2,100,30.02,1.2,WSW,8.1,-,N/A,Rain,Heavy Rain,250,2013-12-23 21:23:00
4:25 PM,66.2,66.2,100,30.02,1.5,WSW,9.2,-,N/A,Rain,Heavy Rain,250,2013-12-23 21:25:00
4:27 PM,66.2,66.2,100,30.02,2.0,WSW,8.1,-,N/A,Rain,Light Rain,250,2013-12-23 21:27:00
4:29 PM,66.2,66.2,100,30.02,2.5,WSW,8.1,-,N/A,Rain,Light Rain,240,2013-12-23 21:29:00
4:31 PM,66.2,66.2,100,30.02,4.0,WSW,8.1,-,N/A,Rain,Light Rain,250,2013-12-23 21:31:00
4:37 PM,66.2,66.2,100,30.02,10.0,West,12.7,20.7,N/A,Rain,Light Rain,280,2013-12-23 21:37:00
4:55 PM,62.6,62.6,100,30.04,10.0,NW,9.2,-,N/A,Rain,Rain,320,2013-12-23 21:55:00
4:57 PM,62.6,62.6,100,30.04,10.0,NW,10.4,-,N/A,Rain,Light Rain,320,2013-12-23 21:57:00
4:58 PM,63.0,63.0,100,30.05,10.0,NNW,10.4,-,0.12,Rain,Light Rain,330,2013-12-23 21:58:00
5:06 PM,62.6,62.6,100,30.04,10.0,NW,11.5,-,N/A,Rain,Light Rain,320,2013-12-23 22:06:00
5:16 PM,60.8,60.8,100,30.04,10.0,NNW,12.7,23.0,N/A,Rain,Light Rain,340,2013-12-23 22:16:00
5:22 PM,60.8,60.8,100,30.05,10.0,NNW,12.7,-,N/A,,Light Drizzle,330,2013-12-23 22:22:00
5:23 PM,60.8,60.8,100,30.05,10.0,NNW,17.3,21.9,N/A,,Light Drizzle,330,2013-12-23 22:23:00
5:24 PM,60.8,60.8,100,30.05,10.0,NNW,17.3,21.9,N/A,,Overcast,330,2013-12-23 22:24:00
5:34 PM,59.0,59.0,100,30.06,10.0,NNW,12.7,20.7,N/A,Rain,Light Rain,340,2013-12-23 22:34:00
5:54 PM,57.2,57.2,100,30.08,10.0,NW,9.2,-,N/A,Rain,Light Rain,320,2013-12-23 22:54:00
5:56 PM,57.2,57.2,100,30.08,10.0,NNW,9.2,-,N/A,Rain,Light Rain,340,2013-12-23 22:56:00
5:58 PM,57.7,57.7,100,30.09,10.0,NNW,9.2,-,0.01,Rain,Light Rain,330,2013-12-23 22:58:00
5:59 PM,57.2,57.2,100,30.08,9.0,NW,8.1,-,N/A,Rain,Light Rain,320,2013-12-23 22:59:00
6:03 PM,57.2,57.2,100,30.08,8.0,NNW,6.9,-,N/A,Rain,Rain,340,2013-12-23 23:03:00
6:13 PM,57.2,57.2,100,30.07,8.0,North,5.8,-,N/A,Rain,Light Rain,350,2013-12-23 23:13:00
6:23 PM,57.2,57.2,100,30.08,10.0,Variable,5.8,-,N/A,Rain,Light Rain,0,2013-12-23 23:23:00
6:33 PM,57.2,57.2,100,30.08,10.0,Variable,5.8,-,N/A,Rain,Light Rain,0,2013-12-23 23:33:00
6:35 PM,57.2,57.2,100,30.08,10.0,North,6.9,-,N/A,Rain,Light Rain,360,2013-12-23 23:35:00
6:58 PM,57.2,57.2,100,30.10,10.0,North,5.8,-,0.03,Rain,Light Rain,360,2013-12-23 23:58:00
7:09 PM,57.2,57.2,100,30.09,10.0,North,3.5,-,N/A,,Mostly Cloudy,350,2013-12-24 00:09:00
7:27 PM,57.2,57.2,100,30.11,10.0,North,3.5,-,N/A,Rain,Light Rain,360,2013-12-24 00:27:00
7:41 PM,57.2,57.2,100,30.09,7.0,North,5.8,-,N/A,Rain,Light Rain,350,2013-12-24 00:41:00
7:57 PM,55.4,55.4,100,30.11,7.0,NNW,15.0,-,N/A,Rain,Light Rain,340,2013-12-24 00:57:00
7:58 PM,56.1,56.1,100,30.12,7.0,NNW,13.8,-,0.02,Rain,Light Rain,340,2013-12-24 00:58:00
8:11 PM,53.6,53.6,100,30.11,7.0,NNE,12.7,20.7,N/A,Rain,Light Rain,20,2013-12-24 01:11:00
8:17 PM,53.6,53.6,100,30.11,8.0,NNE,10.4,-,N/A,Rain,Light Rain,20,2013-12-24 01:17:00
8:24 PM,51.8,51.8,100,30.12,8.0,North,10.4,-,N/A,Rain,Light Rain,10,2013-12-24 01:24:00
8:48 PM,51.8,51.8,100,30.13,10.0,North,8.1,-,N/A,Rain,Light Rain,360,2013-12-24 01:48:00
8:54 PM,51.8,51.8,100,30.13,10.0,North,6.9,-,N/A,Rain,Light Rain,350,2013-12-24 01:54:00
8:56 PM,51.8,51.8,100,30.13,10.0,NNW,6.9,-,N/A,Rain,Light Rain,340,2013-12-24 01:56:00
8:58 PM,51.4,51.3,99,30.14,10.0,NNW,8.1,-,0.03,Rain,Light Rain,340,2013-12-24 01:58:00
9:58 PM,51.8,51.8,100,30.14,10.0,North,4.6,-,0.00,Rain,Light Rain,350,2013-12-24 02:58:00
10:18 PM,51.8,51.8,100,30.13,10.0,NNE,6.9,-,N/A,,Mostly Cloudy,20,2013-12-24 03:18:00
10:58 PM,51.4,51.3,99,30.14,10.0,Calm,Calm,-,0.01,,Overcast,0,2013-12-24 03:58:00
11:23 PM,51.8,51.8,100,30.13,10.0,NNW,4.6,-,N/A,Rain,Light Rain,340,2013-12-24 04:23:00
11:52 PM,51.8,51.8,100,30.13,10.0,NNW,5.8,-,N/A,,Mostly Cloudy,330,2013-12-24 04:52:00
11:58 PM,51.4,51.4,100,30.13,10.0,NNW,8.1,-,0.00,,Mostly Cloudy,330,2013-12-24 04:58:00